Time,TemperatureF,DewpointF,PressureIn,WindDirection,WindDirectionDegrees,WindSpeedMPH,WindSpeedGustMPH,Humidity,HourlyPrecipIn,Conditions,Clouds,dailyrainin,SoftwareType,DateUTC
2013-03-26 00:05:00,46.4,27.8,29.23,SW,233,5.8,7.8,48,0.00,,---,0.00,VWS V14.01,2013-03-26 07:05:00,
2013-03-26 00:10:00,46.6,28.0,29.23,WSW,245,6.3,6.9,48,0.00,,---,0.00,VWS V14.01,2013-03-26 07:10:00,
2013-03-26 00:15:00,46.8,28.1,29.23,WSW,249,5.4,6.7,48,0.00,,---,0.00,VWS V14.01,2013-03-26 07:15:00,
2013-03-26 00:20:00,47.1,28.5,29.23,WSW,250,6.9,6.9,48,0.00,,---,0.00,VWS V14.01,2013-03-26 07:20:00,
2013-03-26 00:25:00,47.3,28.1,29.23,SW,234,6.7,7.8,47,0.00,,---,0.00,VWS V14.01,2013-03-26 07:25:00,
2013-03-26 00:31:00,47.7,26.3,29.23,WSW,239,7.8,8.7,43,0.00,,---,0.00,VWS V14.01,2013-03-26 07:31:00,
2013-03-26 00:36:00,47.8,25.9,29.23,WSW,252,8.3,10.1,42,0.00,,---,0.00,VWS V14.01,2013-03-26 07:36:00,
2013-03-26 00:41:00,48.0,25.5,29.23,SW,233,7.8,10.1,41,0.00,,---,0.00,VWS V14.01,2013-03-26 07:41:00,
2013-03-26 00:46:00,48.0,25.5,29.23,WSW,243,9.6,11.0,41,0.00,,---,0.00,VWS V14.01,2013-03-26 07:46:00,
2013-03-26 00:51:00,48.0,25.5,29.23,WSW,258,8.3,9.6,41,0.00,,---,0.00,VWS V14.01,2013-03-26 07:51:00,
2013-03-26 00:56:00,47.8,24.7,29.23,WSW,252,7.8,10.5,40,0.00,,---,0.00,VWS V14.01,2013-03-26 07:56:00,
2013-03-26 01:01:00,48.0,24.9,29.23,WSW,247,9.2,11.0,40,0.00,,---,0.00,VWS V14.01,2013-03-26 08:01:00,
2013-03-26 01:06:00,48.0,24.9,29.23,WSW,243,7.4,11.0,40,0.00,,---,0.00,VWS V14.01,2013-03-26 08:06:00,
2013-03-26 01:11:00,47.7,24.5,29.23,SW,223,6.9,8.3,40,0.00,,---,0.00,VWS V14.01,2013-03-26 08:11:00,
2013-03-26 01:16:00,47.5,25.0,29.23,SW,223,8.3,9.6,41,0.00,,---,0.00,VWS V14.01,2013-03-26 08:16:00,
2013-03-26 01:21:00,47.3,26.0,29.23,SW,227,8.3,8.3,43,0.00,,---,0.00,VWS V14.01,2013-03-26 08:21:00,
2013-03-26 01:26:00,47.3,26.0,29.23,SSW,213,9.2,9.2,43,0.00,,---,0.00,VWS V14.01,2013-03-26 08:26:00,
2013-03-26 01:31:00,47.3,26.5,29.23,SSW,196,7.8,8.3,44,0.00,,---,0.00,VWS V14.01,2013-03-26 08:31:00,
2013-03-26 01:36:00,47.1,26.9,29.23,SW,223,6.9,7.4,45,0.00,,---,0.00,VWS V14.01,2013-03-26 08:36:00,
2013-03-26 01:41:00,47.1,26.9,29.23,SW,227,6.3,9.2,45,0.00,,---,0.00,VWS V14.01,2013-03-26 08:41:00,
2013-03-26 01:46:00,46.9,27.3,29.23,SW,227,6.7,7.8,46,0.00,,---,0.00,VWS V14.01,2013-03-26 08:46:00,
2013-03-26 01:51:00,46.9,27.8,29.23,SW,221,6.3,8.3,47,0.00,,---,0.00,VWS V14.01,2013-03-26 08:51:00,
2013-03-26 01:56:00,46.9,27.8,29.23,SW,221,7.4,9.2,47,0.00,,---,0.00,VWS V14.01,2013-03-26 08:56:00,
2013-03-26 02:01:00,46.8,28.1,29.23,SW,221,8.3,9.2,48,0.00,,---,0.00,VWS V14.01,2013-03-26 09:01:00,
2013-03-26 02:06:00,47.1,27.9,29.23,SW,219,6.7,10.1,47,0.00,,---,0.00,VWS V14.01,2013-03-26 09:06:00,
2013-03-26 02:11:00,47.3,27.6,29.23,SW,215,9.2,9.2,46,0.00,,---,0.00,VWS V14.01,2013-03-26 09:11:00,
2013-03-26 02:16:00,47.3,27.6,29.23,SW,226,7.4,10.1,46,0.00,,---,0.00,VWS V14.01,2013-03-26 09:16:00,
2013-03-26 02:21:00,47.5,27.8,29.23,SW,221,8.7,9.6,46,0.00,,---,0.00,VWS V14.01,2013-03-26 09:21:00,
2013-03-26 02:26:00,47.5,27.2,29.23,SW,214,9.2,9.2,45,0.00,,---,0.00,VWS V14.01,2013-03-26 09:26:00,
2013-03-26 02:31:00,47.7,27.4,29.23,SSW,211,6.9,8.3,45,0.00,,---,0.00,VWS V14.01,2013-03-26 09:31:00,
2013-03-26 02:36:00,47.7,27.4,29.23,SSW,213,7.4,9.2,45,0.00,,---,0.00,VWS V14.01,2013-03-26 09:36:00,
2013-03-26 02:41:00,47.7,26.8,29.23,SW,225,7.8,10.1,44,0.00,,---,0.00,VWS V14.01,2013-03-26 09:41:00,
2013-03-26 02:46:00,47.7,26.8,29.23,SSW,209,5.4,6.7,44,0.00,,---,0.00,VWS V14.01,2013-03-26 09:46:00,
2013-03-26 02:51:00,47.7,26.3,29.23,SSW,199,10.1,10.1,43,0.00,,---,0.00,VWS V14.01,2013-03-26 09:51:00,
2013-03-26 02:56:00,47.7,26.3,29.23,SW,226,8.7,9.6,43,0.00,,---,0.00,VWS V14.01,2013-03-26 09:56:00,
2013-03-26 03:01:00,47.7,26.3,29.23,SSW,213,8.3,10.1,43,0.00,,---,0.00,VWS V14.01,2013-03-26 10:01:00,
2013-03-26 03:06:00,47.8,26.4,29.23,SW,226,6.9,7.8,43,0.00,,---,0.00,VWS V14.01,2013-03-26 10:06:00,
2013-03-26 03:11:00,47.8,25.3,29.23,WSW,237,8.3,9.6,41,0.00,,---,0.00,VWS V14.01,2013-03-26 10:11:00,
2013-03-26 03:16:00,47.7,25.1,29.23,SW,231,8.7,11.6,41,0.00,,---,0.00,VWS V14.01,2013-03-26 10:16:00,
2013-03-26 03:21:00,47.7,24.5,29.23,SW,221,6.7,8.7,40,0.00,,---,0.00,VWS V14.01,2013-03-26 10:21:00,
2013-03-26 03:26:00,47.8,24.7,29.23,SW,231,10.1,10.1,40,0.00,,---,0.00,VWS V14.01,2013-03-26 10:26:00,
2013-03-26 03:31:00,47.8,24.7,29.23,SW,219,7.8,9.2,40,0.00,,---,0.00,VWS V14.01,2013-03-26 10:31:00,
2013-03-26 03:36:00,47.8,24.1,29.23,SW,233,8.7,10.1,39,0.00,,---,0.00,VWS V14.01,2013-03-26 10:36:00,
2013-03-26 03:41:00,47.8,24.7,29.23,SSW,213,9.2,10.5,40,0.00,,---,0.00,VWS V14.01,2013-03-26 10:41:00,
2013-03-26 03:46:00,47.8,24.7,29.23,SW,224,7.8,9.6,40,0.00,,---,0.00,VWS V14.01,2013-03-26 10:46:00,
2013-03-26 03:51:00,47.7,25.1,29.21,SW,234,9.6,11.0,41,0.00,,---,0.00,VWS V14.01,2013-03-26 10:51:00,
2013-03-26 03:56:00,47.7,25.1,29.21,SSW,212,6.9,8.7,41,0.00,,---,0.00,VWS V14.01,2013-03-26 10:56:00,
2013-03-26 04:01:00,47.7,25.1,29.21,SW,218,9.2,11.0,41,0.00,,---,0.00,VWS V14.01,2013-03-26 11:01:00,
2013-03-26 04:06:00,47.8,25.3,29.21,SW,219,7.4,10.1,41,0.00,,---,0.00,VWS V14.01,2013-03-26 11:06:00,
2013-03-26 04:11:00,47.8,25.3,29.21,SSW,209,6.3,8.3,41,0.00,,---,0.00,VWS V14.01,2013-03-26 11:11:00,
2013-03-26 04:16:00,47.5,28.3,29.21,SSW,202,6.3,7.4,47,0.00,,---,0.00,VWS V14.01,2013-03-26 11:16:00,
2013-03-26 04:21:00,47.3,29.1,29.21,SW,227,6.9,8.3,49,0.00,,---,0.00,VWS V14.01,2013-03-26 11:21:00,
2013-03-26 04:26:00,47.1,30.4,29.21,SW,227,8.7,8.7,52,0.00,,---,0.00,VWS V14.01,2013-03-26 11:26:00,
2013-03-26 04:31:00,47.1,30.4,29.21,SW,217,7.4,7.8,52,0.00,,---,0.00,VWS V14.01,2013-03-26 11:31:00,
2013-03-26 04:36:00,47.3,31.0,29.21,SW,215,9.6,9.6,53,0.00,,---,0.00,VWS V14.01,2013-03-26 11:36:00,
2013-03-26 04:41:00,47.3,30.6,29.21,SW,219,7.4,8.7,52,0.00,,---,0.00,VWS V14.01,2013-03-26 11:41:00,
2013-03-26 04:46:00,47.1,30.4,29.21,SW,226,7.4,11.0,52,0.00,,---,0.00,VWS V14.01,2013-03-26 11:46:00,
2013-03-26 04:51:00,47.3,30.6,29.21,SW,231,6.9,8.7,52,0.00,,---,0.00,VWS V14.01,2013-03-26 11:51:00,
2013-03-26 04:56:00,47.3,30.1,29.21,SW,219,9.2,9.2,51,0.00,,---,0.00,VWS V14.01,2013-03-26 11:56:00,
2013-03-26 05:02:00,47.3,29.6,29.21,SW,215,6.7,8.3,50,0.00,,---,0.00,VWS V14.01,2013-03-26 12:02:00,
2013-03-26 05:07:00,47.3,29.1,29.21,WSW,239,7.4,8.7,49,0.00,,---,0.00,VWS V14.01,2013-03-26 12:07:00,
2013-03-26 05:12:00,47.3,29.1,29.21,SW,226,5.4,6.9,49,0.00,,---,0.00,VWS V14.01,2013-03-26 12:12:00,
2013-03-26 05:17:00,47.3,29.6,29.21,SW,235,5.4,7.4,50,0.00,,---,0.00,VWS V14.01,2013-03-26 12:17:00,
2013-03-26 05:22:00,47.1,29.5,29.21,SW,223,7.4,7.4,50,0.00,,---,0.00,VWS V14.01,2013-03-26 12:22:00,
2013-03-26 05:28:00,47.3,29.1,29.21,SW,216,5.8,8.3,49,0.00,,---,0.00,VWS V14.01,2013-03-26 12:28:00,
2013-03-26 05:33:00,47.3,28.6,29.21,SW,223,4.0,6.3,48,0.00,,---,0.00,VWS V14.01,2013-03-26 12:33:00,
2013-03-26 05:38:00,47.3,28.6,29.21,SW,233,7.8,8.7,48,0.00,,---,0.00,VWS V14.01,2013-03-26 12:38:00,
2013-03-26 05:43:00,47.5,28.3,29.21,SW,215,7.4,7.8,47,0.00,,---,0.00,VWS V14.01,2013-03-26 12:43:00,
2013-03-26 05:48:00,47.5,28.3,29.21,SW,214,6.7,8.7,47,0.00,,---,0.00,VWS V14.01,2013-03-26 12:48:00,
2013-03-26 05:53:00,47.7,27.9,29.21,SW,221,7.8,8.7,46,0.00,,---,0.00,VWS V14.01,2013-03-26 12:53:00,
2013-03-26 05:58:00,47.7,27.9,29.21,SW,218,5.8,6.9,46,0.00,,---,0.00,VWS V14.01,2013-03-26 12:58:00,
2013-03-26 06:03:00,47.7,27.4,29.21,SSW,212,7.4,8.7,45,0.00,,---,0.00,VWS V14.01,2013-03-26 13:03:00,
2013-03-26 06:08:00,47.7,26.8,29.21,SSW,210,6.9,8.3,44,0.00,,---,0.00,VWS V14.01,2013-03-26 13:08:00,
2013-03-26 06:13:00,47.7,26.8,29.21,SW,222,7.4,8.7,44,0.00,,---,0.00,VWS V14.01,2013-03-26 13:13:00,
2013-03-26 06:18:00,47.7,26.8,29.21,SW,228,9.2,9.6,44,0.00,,---,0.00,VWS V14.01,2013-03-26 13:18:00,
2013-03-26 06:23:00,47.7,26.8,29.21,SW,234,7.8,9.2,44,0.00,,---,0.00,VWS V14.01,2013-03-26 13:23:00,
2013-03-26 06:28:00,47.7,27.4,29.21,SW,227,6.9,6.9,45,0.00,,---,0.00,VWS V14.01,2013-03-26 13:28:00,
2013-03-26 06:33:00,47.7,26.8,29.21,SW,232,6.9,7.4,44,0.00,,---,0.00,VWS V14.01,2013-03-26 13:33:00,
2013-03-26 06:38:00,47.5,26.7,29.21,SW,233,7.8,8.7,44,0.00,,---,0.00,VWS V14.01,2013-03-26 13:38:00,
2013-03-26 06:43:00,47.5,26.7,29.21,SW,223,7.4,8.3,44,0.00,,---,0.00,VWS V14.01,2013-03-26 13:43:00,
2013-03-26 06:48:00,47.5,26.7,29.23,SW,220,6.7,6.9,44,0.00,,---,0.00,VWS V14.01,2013-03-26 13:48:00,
2013-03-26 06:53:00,47.5,26.7,29.23,SW,225,5.4,7.8,44,0.00,,---,0.00,VWS V14.01,2013-03-26 13:53:00,
2013-03-26 06:59:00,47.5,26.7,29.23,SW,234,6.9,7.8,44,0.00,,---,0.00,VWS V14.01,2013-03-26 13:59:00,
2013-03-26 07:04:00,47.5,26.1,29.23,SW,218,6.3,7.4,43,0.00,,---,0.00,VWS V14.01,2013-03-26 14:04:00,
2013-03-26 07:09:00,47.3,26.0,29.23,South,191,7.4,7.8,43,0.00,,---,0.00,VWS V14.01,2013-03-26 14:09:00,
2013-03-26 07:14:00,47.5,26.7,29.23,SW,216,6.9,6.9,44,0.00,,---,0.00,VWS V14.01,2013-03-26 14:14:00,
2013-03-26 07:20:00,47.5,26.7,29.23,SW,226,8.3,8.3,44,0.00,,---,0.00,VWS V14.01,2013-03-26 14:20:00,
2013-03-26 07:26:00,47.7,26.8,29.23,SSW,206,7.4,8.3,44,0.00,,---,0.00,VWS V14.01,2013-03-26 14:26:00,
2013-03-26 07:32:00,48.7,26.7,29.23,SW,219,6.9,7.4,42,0.00,,---,0.00,VWS V14.01,2013-03-26 14:32:00,
2013-03-26 07:37:00,49.3,25.4,29.23,SSW,212,6.9,8.3,39,0.00,,---,0.00,VWS V14.01,2013-03-26 14:37:00,
2013-03-26 07:42:00,48.2,25.0,29.23,SW,233,6.7,9.6,40,0.00,,---,0.00,VWS V14.01,2013-03-26 14:42:00,
2013-03-26 07:47:00,48.0,25.5,29.23,SW,233,6.9,8.7,41,0.00,,---,0.00,VWS V14.01,2013-03-26 14:47:00,
2013-03-26 07:52:00,48.0,25.5,29.23,WSW,248,6.9,10.1,41,0.00,,---,0.00,VWS V14.01,2013-03-26 14:52:00,
2013-03-26 07:57:00,48.4,26.4,29.23,WSW,241,6.3,8.3,42,0.00,,---,0.00,VWS V14.01,2013-03-26 14:57:00,
2013-03-26 08:02:00,48.2,25.6,29.23,SW,227,8.7,9.6,41,0.00,,---,0.00,VWS V14.01,2013-03-26 15:02:00,
2013-03-26 08:07:00,48.4,25.8,29.23,SW,223,9.2,11.2,41,0.00,,---,0.00,VWS V14.01,2013-03-26 15:07:00,
2013-03-26 08:13:00,48.6,26.0,29.23,SW,229,7.8,8.7,41,0.00,,---,0.00,VWS V14.01,2013-03-26 15:13:00,
2013-03-26 08:18:00,48.4,25.2,29.23,SW,220,8.7,9.2,40,0.00,,---,0.00,VWS V14.01,2013-03-26 15:18:00,
2013-03-26 08:23:00,48.7,25.5,29.23,SW,220,6.3,7.8,40,0.00,,---,0.00,VWS V14.01,2013-03-26 15:23:00,
2013-03-26 08:28:00,49.1,25.2,29.23,SW,221,9.2,11.0,39,0.00,,---,0.00,VWS V14.01,2013-03-26 15:28:00,
2013-03-26 08:33:00,49.8,25.2,29.23,SSW,202,8.3,8.3,38,0.00,,---,0.00,VWS V14.01,2013-03-26 15:33:00,
2013-03-26 08:38:00,49.8,25.2,29.23,SSW,212,9.6,11.0,38,0.00,,---,0.00,VWS V14.01,2013-03-26 15:38:00,
2013-03-26 08:43:00,50.2,24.9,29.23,SSW,212,9.6,9.6,37,0.00,,---,0.00,VWS V14.01,2013-03-26 15:43:00,
2013-03-26 08:48:00,50.5,25.2,29.23,WSW,241,6.9,9.2,37,0.00,,---,0.00,VWS V14.01,2013-03-26 15:48:00,
2013-03-26 08:53:00,50.2,24.9,29.23,SW,220,7.4,8.7,37,0.00,,---,0.00,VWS V14.01,2013-03-26 15:53:00,
2013-03-26 08:59:00,50.0,24.8,29.23,SW,218,7.8,8.7,37,0.00,,---,0.00,VWS V14.01,2013-03-26 15:59:00,
2013-03-26 09:04:00,50.4,25.1,29.23,WSW,241,9.6,9.6,37,0.00,,---,0.00,VWS V14.01,2013-03-26 16:04:00,
2013-03-26 09:09:00,50.5,25.2,29.23,WSW,252,5.8,8.3,37,0.00,,---,0.00,VWS V14.01,2013-03-26 16:09:00,
2013-03-26 09:14:00,51.4,25.4,29.23,WSW,237,5.8,7.8,36,0.00,,---,0.00,VWS V14.01,2013-03-26 16:14:00,
2013-03-26 09:19:00,52.0,25.9,29.23,SW,226,6.9,9.6,36,0.00,,---,0.00,VWS V14.01,2013-03-26 16:19:00,
2013-03-26 09:25:00,52.7,26.5,29.23,WSW,258,6.9,7.8,36,0.00,,---,0.00,VWS V14.01,2013-03-26 16:25:00,
2013-03-26 09:30:00,52.3,24.1,29.23,SW,221,6.9,8.7,33,0.00,,---,0.00,VWS V14.01,2013-03-26 16:30:00,
2013-03-26 09:35:00,52.7,24.4,29.23,WSW,242,5.8,7.8,33,0.00,,---,0.00,VWS V14.01,2013-03-26 16:35:00,
2013-03-26 09:40:00,52.7,24.4,29.23,WSW,240,7.8,8.7,33,0.00,,---,0.00,VWS V14.01,2013-03-26 16:40:00,
2013-03-26 09:45:00,53.1,24.7,29.23,WSW,256,6.3,7.8,33,0.00,,---,0.00,VWS V14.01,2013-03-26 16:45:00,
2013-03-26 09:50:00,53.2,24.9,29.23,SW,236,6.3,7.4,33,0.00,,---,0.00,VWS V14.01,2013-03-26 16:50:00,
2013-03-26 09:55:00,53.8,25.4,29.23,West,259,7.4,8.3,33,0.00,,---,0.00,VWS V14.01,2013-03-26 16:55:00,
2013-03-26 10:00:00,55.8,24.8,29.23,West,261,6.9,6.9,30,0.00,,---,0.00,VWS V14.01,2013-03-26 17:00:00,
2013-03-26 10:05:00,56.7,24.0,29.23,West,274,7.8,7.8,28,0.00,,---,0.00,VWS V14.01,2013-03-26 17:05:00,
2013-03-26 10:10:00,57.2,23.5,29.23,WSW,258,5.4,6.7,27,0.00,,---,0.00,VWS V14.01,2013-03-26 17:10:00,
2013-03-26 10:15:00,57.9,24.2,29.23,West,262,6.7,8.7,27,0.00,,---,0.00,VWS V14.01,2013-03-26 17:15:00,
2013-03-26 10:20:00,58.6,23.9,29.23,West,276,5.4,6.9,26,0.00,,---,0.00,VWS V14.01,2013-03-26 17:20:00,
2013-03-26 10:25:00,57.7,23.1,29.23,WSW,255,4.5,10.1,26,0.00,,---,0.00,VWS V14.01,2013-03-26 17:25:00,
2013-03-26 10:30:00,59.0,23.2,29.23,WSW,254,7.8,10.1,25,0.00,,---,0.00,VWS V14.01,2013-03-26 17:30:00,
2013-03-26 10:35:00,59.4,23.6,29.23,West,277,10.5,10.5,25,0.00,,---,0.00,VWS V14.01,2013-03-26 17:35:00,
2013-03-26 10:40:00,60.1,24.2,29.23,WSW,258,8.7,8.7,25,0.00,,---,0.00,VWS V14.01,2013-03-26 17:40:00,
2013-03-26 10:45:00,60.6,23.6,29.23,WNW,284,9.2,11.2,24,0.00,,---,0.00,VWS V14.01,2013-03-26 17:45:00,
2013-03-26 10:50:00,60.8,23.8,29.23,WNW,285,9.2,9.6,24,0.00,,---,0.00,VWS V14.01,2013-03-26 17:50:00,
2013-03-26 10:55:00,60.8,23.8,29.23,WNW,289,8.3,8.3,24,0.00,,---,0.00,VWS V14.01,2013-03-26 17:55:00,
2013-03-26 11:00:00,61.3,24.3,29.23,West,279,6.3,9.2,24,0.00,,---,0.00,VWS V14.01,2013-03-26 18:00:00,
2013-03-26 11:05:00,61.7,23.5,29.23,WNW,298,4.9,4.9,23,0.00,,---,0.00,VWS V14.01,2013-03-26 18:05:00,
2013-03-26 11:10:00,61.3,24.3,29.23,WSW,256,7.8,7.8,24,0.00,,---,0.00,VWS V14.01,2013-03-26 18:10:00,
2013-03-26 11:15:00,61.9,24.7,29.23,WSW,246,4.9,6.7,24,0.00,,---,0.00,VWS V14.01,2013-03-26 18:15:00,
2013-03-26 11:20:00,60.4,23.5,29.23,WSW,246,6.9,10.1,24,0.00,,---,0.00,VWS V14.01,2013-03-26 18:20:00,
2013-03-26 11:25:00,62.6,24.3,29.23,WNW,283,4.5,7.8,23,0.00,,---,0.00,VWS V14.01,2013-03-26 18:25:00,
2013-03-26 11:30:00,63.3,24.9,29.23,SW,235,8.3,10.1,23,0.00,,---,0.00,VWS V14.01,2013-03-26 18:30:00,
2013-03-26 11:35:00,64.0,22.2,29.23,West,261,4.5,6.7,20,0.00,,---,0.00,VWS V14.01,2013-03-26 18:35:00,
2013-03-26 11:40:00,64.8,22.8,29.23,WNW,293,5.8,7.8,20,0.00,,---,0.00,VWS V14.01,2013-03-26 18:40:00,
2013-03-26 11:45:00,65.3,23.2,29.23,WNW,283,6.3,8.7,20,0.00,,---,0.00,VWS V14.01,2013-03-26 18:45:00,
2013-03-26 11:50:00,65.8,23.7,29.21,WNW,286,7.4,8.7,20,0.00,,---,0.00,VWS V14.01,2013-03-26 18:50:00,
2013-03-26 11:55:00,66.9,20.7,29.21,West,275,4.0,6.3,17,0.00,,---,0.00,VWS V14.01,2013-03-26 18:55:00,
2013-03-26 12:00:00,67.6,21.3,29.21,WSW,258,4.0,5.8,17,0.00,,---,0.00,VWS V14.01,2013-03-26 19:00:00,
2013-03-26 12:05:00,68.2,21.7,29.21,WSW,239,6.3,8.7,17,0.00,,---,0.00,VWS V14.01,2013-03-26 19:05:00,
2013-03-26 12:10:00,67.5,21.2,29.21,WNW,282,6.9,6.9,17,0.00,,---,0.00,VWS V14.01,2013-03-26 19:10:00,
2013-03-26 12:15:00,67.8,21.5,29.21,NW,311,5.8,6.7,17,0.00,,---,0.00,VWS V14.01,2013-03-26 19:15:00,
2013-03-26 12:20:00,68.0,21.6,29.21,SW,227,6.3,6.7,17,0.00,,---,0.00,VWS V14.01,2013-03-26 19:20:00,
2013-03-26 12:25:00,67.5,21.2,29.21,West,267,6.9,7.4,17,0.00,,---,0.00,VWS V14.01,2013-03-26 19:25:00,
2013-03-26 12:30:00,67.8,21.5,29.21,NW,318,5.4,7.4,17,0.00,,---,0.00,VWS V14.01,2013-03-26 19:30:00,
2013-03-26 12:35:00,67.5,21.2,29.21,WSW,257,4.0,8.3,17,0.00,,---,0.00,VWS V14.01,2013-03-26 19:35:00,
2013-03-26 12:40:00,68.5,22.0,29.21,West,266,6.9,9.6,17,0.00,,---,0.00,VWS V14.01,2013-03-26 19:40:00,
2013-03-26 12:45:00,69.1,22.5,29.21,West,277,7.4,9.2,17,0.00,,---,0.00,VWS V14.01,2013-03-26 19:45:00,
2013-03-26 12:50:00,68.9,22.3,29.21,WNW,283,11.0,11.0,17,0.00,,---,0.00,VWS V14.01,2013-03-26 19:50:00,
2013-03-26 12:55:00,68.5,22.0,29.21,WNW,285,7.4,9.6,17,0.00,,---,0.00,VWS V14.01,2013-03-26 19:55:00,
2013-03-26 13:00:00,68.9,22.3,29.21,WSW,254,4.9,4.9,17,0.00,,---,0.00,VWS V14.01,2013-03-26 20:00:00,
2013-03-26 13:05:00,67.8,21.5,29.21,SSW,212,9.2,9.6,17,0.00,,---,0.00,VWS V14.01,2013-03-26 20:05:00,
2013-03-26 13:10:00,68.4,21.9,29.21,WSW,237,5.8,7.8,17,0.00,,---,0.00,VWS V14.01,2013-03-26 20:10:00,
2013-03-26 13:15:00,68.9,22.3,29.21,SW,223,0.0,7.4,17,0.00,,---,0.00,VWS V14.01,2013-03-26 20:15:00,
2013-03-26 13:20:00,70.0,23.2,29.21,WSW,251,5.8,6.3,17,0.00,,---,0.00,VWS V14.01,2013-03-26 20:20:00,
2013-03-26 13:25:00,71.4,22.9,29.21,West,262,0.0,4.5,16,0.00,,---,0.00,VWS V14.01,2013-03-26 20:25:00,
2013-03-26 13:30:00,70.9,22.5,29.21,NW,304,6.9,6.9,16,0.00,,---,0.00,VWS V14.01,2013-03-26 20:30:00,
2013-03-26 13:35:00,70.7,23.8,29.21,WSW,254,4.9,6.9,17,0.00,,---,0.00,VWS V14.01,2013-03-26 20:35:00,
2013-03-26 13:40:00,71.6,23.1,29.21,WSW,253,8.3,10.1,16,0.00,,---,0.00,VWS V14.01,2013-03-26 20:40:00,
2013-03-26 13:45:00,71.1,22.6,29.21,SW,219,4.9,7.8,16,0.00,,---,0.00,VWS V14.01,2013-03-26 20:45:00,
2013-03-26 13:50:00,71.4,22.9,29.18,West,260,10.1,11.0,16,0.00,,---,0.00,VWS V14.01,2013-03-26 20:50:00,
2013-03-26 13:55:00,72.1,23.5,29.18,SW,233,6.7,6.7,16,0.00,,---,0.00,VWS V14.01,2013-03-26 20:55:00,
2013-03-26 14:00:00,71.8,23.2,29.18,West,264,3.6,8.3,16,0.00,,---,0.00,VWS V14.01,2013-03-26 21:00:00,
2013-03-26 14:05:00,72.3,23.6,29.18,West,261,6.9,8.7,16,0.00,,---,0.00,VWS V14.01,2013-03-26 21:05:00,
2013-03-26 14:10:00,72.0,20.2,29.18,NW,317,0.0,0.0,14,0.00,,---,0.00,VWS V14.01,2013-03-26 21:10:00,
2013-03-26 14:15:00,71.8,23.2,29.18,WNW,287,4.9,7.8,16,0.00,,---,0.00,VWS V14.01,2013-03-26 21:15:00,
2013-03-26 14:20:00,71.6,23.1,29.18,WNW,298,9.2,9.6,16,0.00,,---,0.00,VWS V14.01,2013-03-26 21:20:00,
2013-03-26 14:25:00,70.7,19.2,29.18,West,267,9.6,9.6,14,0.00,,---,0.00,VWS V14.01,2013-03-26 21:25:00,
2013-03-26 14:30:00,71.6,19.9,29.18,SW,223,4.5,6.7,14,0.00,,---,0.00,VWS V14.01,2013-03-26 21:30:00,
2013-03-26 14:35:00,72.5,18.9,29.18,West,279,6.3,10.5,13,0.00,,---,0.00,VWS V14.01,2013-03-26 21:35:00,
2013-03-26 14:40:00,71.6,19.9,29.18,WNW,299,0.0,6.7,14,0.00,,---,0.00,VWS V14.01,2013-03-26 21:40:00,
2013-03-26 14:45:00,72.1,20.4,29.18,WNW,291,5.8,8.3,14,0.00,,---,0.00,VWS V14.01,2013-03-26 21:45:00,
2013-03-26 14:50:00,71.6,19.9,29.18,WSW,256,3.6,5.8,14,0.00,,---,0.00,VWS V14.01,2013-03-26 21:50:00,
2013-03-26 14:56:00,72.3,20.5,29.18,West,267,3.6,6.7,14,0.00,,---,0.00,VWS V14.01,2013-03-26 21:56:00,
2013-03-26 15:01:00,72.5,18.9,29.18,NNW,336,4.0,4.9,13,0.00,,---,0.00,VWS V14.01,2013-03-26 22:01:00,
2013-03-26 15:06:00,72.5,18.9,29.15,WSW,247,6.3,6.7,13,0.00,,---,0.00,VWS V14.01,2013-03-26 22:06:00,
2013-03-26 15:11:00,72.5,20.6,29.15,SSW,210,0.0,0.0,14,0.00,,---,0.00,VWS V14.01,2013-03-26 22:11:00,
2013-03-26 15:16:00,73.0,19.3,29.15,SW,231,7.8,9.2,13,0.00,,---,0.00,VWS V14.01,2013-03-26 22:16:00,
2013-03-26 15:21:00,72.9,19.2,29.15,WSW,248,6.7,6.7,13,0.00,,---,0.00,VWS V14.01,2013-03-26 22:21:00,
2013-03-26 15:26:00,72.9,19.2,29.15,SW,225,7.8,10.1,13,0.00,,---,0.00,VWS V14.01,2013-03-26 22:26:00,
2013-03-26 15:31:00,72.1,20.4,29.15,WSW,256,8.7,8.7,14,0.00,,---,0.00,VWS V14.01,2013-03-26 22:31:00,
2013-03-26 15:36:00,72.9,19.2,29.15,NW,312,6.3,6.3,13,0.00,,---,0.00,VWS V14.01,2013-03-26 22:36:00,
2013-03-26 15:41:00,71.8,20.1,29.15,South,180,4.9,5.4,14,0.00,,---,0.00,VWS V14.01,2013-03-26 22:41:00,
2013-03-26 15:46:00,72.5,20.6,29.15,NW,308,5.4,6.3,14,0.00,,---,0.00,VWS V14.01,2013-03-26 22:46:00,
2013-03-26 15:51:00,72.3,20.5,29.15,WSW,237,7.4,9.6,14,0.00,,---,0.00,VWS V14.01,2013-03-26 22:51:00,
2013-03-26 15:56:00,73.0,19.3,29.15,WSW,252,4.5,5.8,13,0.00,,---,0.00,VWS V14.01,2013-03-26 22:56:00,
2013-03-26 16:01:00,72.7,19.0,29.15,SW,233,4.9,7.8,13,0.00,,---,0.00,VWS V14.01,2013-03-26 23:01:00,
2013-03-26 16:06:00,73.2,19.5,29.15,West,266,4.9,6.7,13,0.00,,---,0.00,VWS V14.01,2013-03-26 23:06:00,
2013-03-26 16:11:00,73.2,19.5,29.15,WSW,250,10.1,10.1,13,0.00,,---,0.00,VWS V14.01,2013-03-26 23:11:00,
2013-03-26 16:16:00,72.7,19.0,29.15,WSW,245,2.7,3.6,13,0.00,,---,0.00,VWS V14.01,2013-03-26 23:16:00,
2013-03-26 16:21:00,72.3,20.5,29.15,SSW,201,4.5,4.9,14,0.00,,---,0.00,VWS V14.01,2013-03-26 23:21:00,
2013-03-26 16:26:00,72.3,20.5,29.15,WNW,291,5.4,6.7,14,0.00,,---,0.00,VWS V14.01,2013-03-26 23:26:00,
2013-03-26 16:31:00,72.3,20.5,29.15,West,270,6.3,9.6,14,0.00,,---,0.00,VWS V14.01,2013-03-26 23:31:00,
2013-03-26 16:36:00,72.5,18.9,29.15,West,270,2.7,7.4,13,0.00,,---,0.00,VWS V14.01,2013-03-26 23:36:00,
2013-03-26 16:41:00,72.0,20.2,29.15,West,268,5.4,7.4,14,0.00,,---,0.00,VWS V14.01,2013-03-26 23:41:00,
2013-03-26 16:46:00,71.4,19.8,29.15,WNW,294,4.5,6.9,14,0.00,,---,0.00,VWS V14.01,2013-03-26 23:46:00,
2013-03-26 16:51:00,71.2,19.6,29.15,West,262,4.9,8.3,14,0.00,,---,0.00,VWS V14.01,2013-03-26 23:51:00,
2013-03-26 16:56:00,71.1,19.5,29.15,NNW,335,3.1,6.9,14,0.00,,---,0.00,VWS V14.01,2013-03-26 23:56:00,
2013-03-26 17:01:00,70.9,19.4,29.15,WNW,293,4.5,8.3,14,0.00,,---,0.00,VWS V14.01,2013-03-27 00:01:00,
2013-03-26 17:06:00,71.1,19.5,29.15,West,275,5.8,7.4,14,0.00,,---,0.00,VWS V14.01,2013-03-27 00:06:00,
2013-03-26 17:11:00,70.7,19.2,29.15,West,281,8.3,10.1,14,0.00,,---,0.00,VWS V14.01,2013-03-27 00:11:00,
2013-03-26 17:16:00,70.7,19.2,29.15,WNW,282,8.7,10.1,14,0.00,,---,0.00,VWS V14.01,2013-03-27 00:16:00,
2013-03-26 17:21:00,70.3,18.9,29.15,WSW,249,9.2,9.6,14,0.00,,---,0.00,VWS V14.01,2013-03-27 00:21:00,
2013-03-26 17:26:00,70.2,18.8,29.15,WNW,293,6.9,7.4,14,0.00,,---,0.00,VWS V14.01,2013-03-27 00:26:00,
2013-03-26 17:31:00,70.0,18.6,29.15,WNW,303,6.9,7.8,14,0.00,,---,0.00,VWS V14.01,2013-03-27 00:31:00,
2013-03-26 17:36:00,69.8,18.5,29.15,WNW,286,10.1,10.1,14,0.00,,---,0.00,VWS V14.01,2013-03-27 00:36:00,
2013-03-26 17:41:00,69.4,18.2,29.15,West,262,9.2,13.0,14,0.00,,---,0.00,VWS V14.01,2013-03-27 00:41:00,
2013-03-26 17:46:00,69.1,17.9,29.15,West,270,8.7,9.2,14,0.00,,---,0.00,VWS V14.01,2013-03-27 00:46:00,
2013-03-26 17:51:00,68.7,19.2,29.15,West,270,7.4,9.6,15,0.00,,---,0.00,VWS V14.01,2013-03-27 00:51:00,
2013-03-26 17:56:00,68.7,19.2,29.15,West,273,8.3,8.3,15,0.00,,---,0.00,VWS V14.01,2013-03-27 00:56:00,
2013-03-26 18:01:00,68.2,18.8,29.15,WSW,253,9.6,12.1,15,0.00,,---,0.00,VWS V14.01,2013-03-27 01:01:00,
2013-03-26 18:06:00,67.6,18.4,29.15,West,263,7.8,10.5,15,0.00,,---,0.00,VWS V14.01,2013-03-27 01:06:00,
2013-03-26 18:11:00,67.3,18.1,29.15,WNW,285,10.5,11.2,15,0.00,,---,0.00,VWS V14.01,2013-03-27 01:11:00,
2013-03-26 18:16:00,67.1,17.9,29.15,WNW,292,8.3,8.3,15,0.00,,---,0.00,VWS V14.01,2013-03-27 01:16:00,
2013-03-26 18:21:00,67.1,17.9,29.15,WNW,292,8.3,8.3,15,0.00,,---,0.00,VWS V14.01,2013-03-27 01:21:00,
2013-03-26 18:26:00,67.1,17.9,29.15,WNW,292,8.3,8.3,15,0.00,,---,0.00,VWS V14.01,2013-03-27 01:26:00,
2013-03-26 18:31:00,65.7,16.8,29.15,WSW,256,8.3,9.2,15,0.00,,---,0.00,VWS V14.01,2013-03-27 01:31:00,
2013-03-26 18:36:00,65.7,16.8,29.15,West,264,6.9,6.9,15,0.00,,---,0.00,VWS V14.01,2013-03-27 01:36:00,
2013-03-26 18:41:00,65.7,16.8,29.15,West,264,6.9,6.9,15,0.00,,---,0.00,VWS V14.01,2013-03-27 01:41:00,
2013-03-26 18:46:00,65.7,16.8,29.15,West,264,6.9,6.9,15,0.00,,---,0.00,VWS V14.01,2013-03-27 01:46:00,
2013-03-26 18:51:00,65.7,16.8,29.15,West,264,6.9,6.9,15,0.00,,---,0.00,VWS V14.01,2013-03-27 01:51:00,
2013-03-26 18:56:00,65.7,16.8,29.15,West,264,6.9,6.9,15,0.00,,---,0.00,VWS V14.01,2013-03-27 01:56:00,
2013-03-26 19:01:00,65.7,16.8,29.15,West,264,6.9,6.9,15,0.00,,---,0.00,VWS V14.01,2013-03-27 02:01:00,
2013-03-26 19:06:00,61.7,15.1,29.15,West,269,7.4,8.7,16,0.00,,---,0.00,VWS V14.01,2013-03-27 02:06:00,
2013-03-26 19:11:00,61.0,14.5,29.15,WSW,256,5.8,7.4,16,0.00,,---,0.00,VWS V14.01,2013-03-27 02:11:00,
2013-03-26 19:16:00,60.3,13.9,29.15,WSW,247,5.4,6.7,16,0.00,,---,0.00,VWS V14.01,2013-03-27 02:16:00,
2013-03-26 19:21:00,59.7,14.9,29.15,WSW,242,6.3,7.4,17,0.00,,---,0.00,VWS V14.01,2013-03-27 02:21:00,
2013-03-26 19:26:00,59.2,14.4,29.15,West,261,4.9,5.8,17,0.00,,---,0.00,VWS V14.01,2013-03-27 02:26:00,
2013-03-26 19:31:00,59.0,14.3,29.15,West,274,6.3,8.3,17,0.00,,---,0.00,VWS V14.01,2013-03-27 02:31:00,
2013-03-26 19:36:00,58.6,14.0,29.15,WSW,254,4.0,6.3,17,0.00,,---,0.00,VWS V14.01,2013-03-27 02:36:00,
2013-03-26 19:42:00,58.1,16.1,29.15,WSW,242,5.8,7.8,19,0.00,,---,0.00,VWS V14.01,2013-03-27 02:42:00,
2013-03-26 19:47:00,57.9,15.9,29.18,WSW,241,7.4,7.4,19,0.00,,---,0.00,VWS V14.01,2013-03-27 02:47:00,
2013-03-26 19:52:00,57.6,15.6,29.18,SW,236,4.9,5.4,19,0.00,,---,0.00,VWS V14.01,2013-03-27 02:52:00,
2013-03-26 19:57:00,56.8,15.0,29.18,WSW,248,5.8,6.9,19,0.00,,---,0.00,VWS V14.01,2013-03-27 02:57:00,
2013-03-26 20:02:00,56.3,14.6,29.18,WSW,244,4.9,5.4,19,0.00,,---,0.00,VWS V14.01,2013-03-27 03:02:00,
2013-03-26 20:07:00,55.9,15.5,29.18,WSW,250,4.9,5.4,20,0.00,,---,0.00,VWS V14.01,2013-03-27 03:07:00,
2013-03-26 20:12:00,55.4,15.0,29.18,West,266,5.8,5.8,20,0.00,,---,0.00,VWS V14.01,2013-03-27 03:12:00,
2013-03-26 20:17:00,55.2,17.1,29.18,WSW,255,4.5,4.5,22,0.00,,---,0.00,VWS V14.01,2013-03-27 03:17:00,
2013-03-26 20:22:00,55.0,16.9,29.18,WSW,244,4.9,4.9,22,0.00,,---,0.00,VWS V14.01,2013-03-27 03:22:00,
2013-03-26 20:28:00,54.9,19.7,29.18,WSW,252,6.7,6.7,25,0.00,,---,0.00,VWS V14.01,2013-03-27 03:28:00,
2013-03-26 20:33:00,54.5,19.4,29.18,WSW,250,6.9,7.8,25,0.00,,---,0.00,VWS V14.01,2013-03-27 03:33:00,
2013-03-26 20:38:00,54.3,20.2,29.18,WSW,248,6.3,6.9,26,0.00,,---,0.00,VWS V14.01,2013-03-27 03:38:00,
2013-03-26 20:43:00,54.0,19.9,29.18,WSW,254,5.8,5.8,26,0.00,,---,0.00,VWS V14.01,2013-03-27 03:43:00,
2013-03-26 20:48:00,53.1,19.1,29.18,West,278,4.0,5.4,26,0.00,,---,0.00,VWS V14.01,2013-03-27 03:48:00,
2013-03-26 20:53:00,52.9,19.0,29.18,West,275,3.1,4.0,26,0.00,,---,0.00,VWS V14.01,2013-03-27 03:53:00,
2013-03-26 20:58:00,52.7,19.7,29.18,WSW,245,4.5,5.8,27,0.00,,---,0.00,VWS V14.01,2013-03-27 03:58:00,
2013-03-26 21:00:00,53.1,20.0,29.18,WSW,244,6.7,9.2,27,0.00,,---,0.00,VWS V14.01,2013-03-27 04:00:00,
2013-03-26 21:01:00,53.2,20.1,29.18,WSW,244,5.8,6.7,27,0.00,,---,0.00,VWS V14.01,2013-03-27 04:01:00,
2013-03-26 21:04:00,53.8,19.7,29.18,WSW,243,6.9,7.8,26,0.00,,---,0.00,VWS V14.01,2013-03-27 04:04:00,
2013-03-26 21:09:00,54.0,19.9,29.18,WSW,241,8.3,8.3,26,0.00,,---,0.00,VWS V14.01,2013-03-27 04:09:00,
2013-03-26 21:14:00,53.2,19.3,29.18,WSW,237,6.9,6.9,26,0.00,,---,0.00,VWS V14.01,2013-03-27 04:14:00,
2013-03-26 21:19:00,52.9,19.8,29.18,WSW,255,6.3,7.8,27,0.00,,---,0.00,VWS V14.01,2013-03-27 04:19:00,
2013-03-26 21:24:00,52.3,19.4,29.18,West,259,4.9,5.4,27,0.00,,---,0.00,VWS V14.01,2013-03-27 04:24:00,
2013-03-26 21:29:00,52.2,19.2,29.18,WSW,247,6.7,8.3,27,0.00,,---,0.00,VWS V14.01,2013-03-27 04:29:00,
2013-03-26 21:34:00,51.8,19.8,29.21,WSW,247,5.4,5.8,28,0.00,,---,0.00,VWS V14.01,2013-03-27 04:34:00,
2013-03-26 21:39:00,51.3,19.3,29.21,West,261,3.6,4.5,28,0.00,,---,0.00,VWS V14.01,2013-03-27 04:39:00,
2013-03-26 21:44:00,50.7,18.8,29.21,West,261,0.0,0.0,28,0.00,,---,0.00,VWS V14.01,2013-03-27 04:44:00,
2013-03-26 21:49:00,50.2,19.2,29.21,WSW,251,5.4,6.7,29,0.00,,---,0.00,VWS V14.01,2013-03-27 04:49:00,
2013-03-26 21:54:00,50.4,20.9,29.21,WSW,251,5.8,7.8,31,0.00,,---,0.00,VWS V14.01,2013-03-27 04:54:00,
2013-03-26 21:59:00,50.2,21.5,29.21,West,273,0.0,2.7,32,0.00,,---,0.00,VWS V14.01,2013-03-27 04:59:00,
2013-03-26 22:02:00,50.0,21.3,29.21,West,273,0.0,0.0,32,0.00,,---,0.00,VWS V14.01,2013-03-27 05:02:00,
2013-03-26 22:07:00,49.8,21.9,29.21,West,274,0.0,0.0,33,0.00,,---,0.00,VWS V14.01,2013-03-27 05:07:00,
2013-03-26 22:13:00,49.5,21.6,29.21,West,274,0.0,0.0,33,0.00,,---,0.00,VWS V14.01,2013-03-27 05:13:00,
2013-03-26 22:18:00,49.3,22.8,29.21,West,273,0.0,0.0,35,0.00,,---,0.00,VWS V14.01,2013-03-27 05:18:00,
2013-03-26 22:23:00,49.1,23.3,29.21,WNW,286,0.0,0.0,36,0.00,,---,0.00,VWS V14.01,2013-03-27 05:23:00,
2013-03-26 22:28:00,49.1,23.3,29.21,West,274,3.1,3.6,36,0.00,,---,0.00,VWS V14.01,2013-03-27 05:28:00,
2013-03-26 22:33:00,48.9,23.8,29.21,NW,321,0.0,0.0,37,0.00,,---,0.00,VWS V14.01,2013-03-27 05:33:00,
2013-03-26 22:38:00,48.6,23.5,29.21,North,356,0.0,0.0,37,0.00,,---,0.00,VWS V14.01,2013-03-27 05:38:00,
2013-03-26 22:43:00,47.8,22.9,29.21,North,356,0.0,0.0,37,0.00,,---,0.00,VWS V14.01,2013-03-27 05:43:00,
2013-03-26 22:48:00,47.3,22.4,29.21,North,356,0.0,0.0,37,0.00,,---,0.00,VWS V14.01,2013-03-27 05:48:00,
2013-03-26 22:53:00,46.9,22.0,29.21,North,356,0.0,0.0,37,0.00,,---,0.00,VWS V14.01,2013-03-27 05:53:00,
2013-03-26 22:58:00,46.8,22.5,29.21,North,356,0.0,0.0,38,0.00,,---,0.00,VWS V14.01,2013-03-27 05:58:00,
2013-03-26 23:03:00,46.9,22.7,29.21,West,274,0.0,0.0,38,0.00,,---,0.00,VWS V14.01,2013-03-27 06:03:00,
2013-03-26 23:08:00,47.1,24.1,29.21,WSW,255,3.6,5.4,40,0.00,,---,0.00,VWS V14.01,2013-03-27 06:08:00,
2013-03-26 23:13:00,47.5,24.4,29.21,WSW,257,5.4,5.8,40,0.00,,---,0.00,VWS V14.01,2013-03-27 06:13:00,
2013-03-26 23:18:00,47.8,24.7,29.21,West,262,5.8,7.8,40,0.00,,---,0.00,VWS V14.01,2013-03-27 06:18:00,
2013-03-26 23:23:00,48.2,25.0,29.21,WSW,257,6.9,6.9,40,0.00,,---,0.00,VWS V14.01,2013-03-27 06:23:00,
2013-03-26 23:28:00,48.6,24.7,29.21,SW,231,6.9,7.4,39,0.00,,---,0.00,VWS V14.01,2013-03-27 06:28:00,
2013-03-26 23:33:00,48.7,24.3,29.21,WSW,255,6.9,6.9,38,0.00,,---,0.00,VWS V14.01,2013-03-27 06:33:00,
2013-03-26 23:38:00,48.4,24.0,29.21,SW,230,6.9,6.9,38,0.00,,---,0.00,VWS V14.01,2013-03-27 06:38:00,
2013-03-26 23:43:00,48.6,24.1,29.21,SW,230,5.8,7.4,38,0.00,,---,0.00,VWS V14.01,2013-03-27 06:43:00,
2013-03-26 23:48:00,49.1,24.6,29.21,SW,227,7.4,7.8,38,0.00,,---,0.00,VWS V14.01,2013-03-27 06:48:00,
2013-03-26 23:53:00,49.1,24.0,29.21,WSW,246,7.4,7.8,37,0.00,,---,0.00,VWS V14.01,2013-03-27 06:53:00,
2013-03-26 23:58:00,48.9,23.8,29.21,SW,229,4.9,6.3,37,0.00,,---,0.00,VWS V14.01,2013-03-27 06:58:00,